Погода в Тосно

Россия / Санкт-Петербург и Ленинградская область     59°32′26″N   30°52′39″E
темп.,
°C
ветер,
м/с
пор.,
м/с
влажн.,
%
обл.,
%
осадки,
мм/ч
давл.,
гПа
погр.,
м
3 марта, ср
ср300:00−1зсз411900 0.0 1018441
03:00−1зсз412910 0.0 1018464
06:00−2зсз4119426 0.0 1016390
09:00−1з4118953 0.0 1015617
12:00+1з5107942 0.0 1013743
15:00+3з5126971 0.0 10111254
18:00+1з51297100 0.4 1007897
21:00+2зсз51297100 1.6 1004809
4 марта, чт
чт400:000сз61295100 2.5 10021090
03:00−2зсз4118369 2.5 1003645
06:00−4сз410840 0.0 1003502
09:00−4сз38870 0.0 1003396
12:00−2сз357817 0.0 1003579
15:00−2сз357742 0.0 1003824
18:00−4сз479199 0.6 1003651
21:00−5сз498699 1.2 1005802
5 марта, пт
пт500:00−7сз388759 0.0 1005478
03:00−7сз378874 0.1 1007658
06:00−7сз3790100 0.1 1007603
09:00−8сз3787100 0.3 1009525
12:00−7сз3579100 0.1 1010686
15:00−6ссз3578100 0.2 1013813
18:00−7с2580100 0.1 1014652
21:00−9ссз118873 0.1 101626
6 марта, сб
сб600:00−9зсз259060 0.0 1017168
03:00−10зсз269552 0.0 1017182
06:00−10з269769 0.0 1017198
09:00−9з279060 0.0 1016306
12:00−4зюз36740 0.0 1014786
15:00−3юз596749 0.0 10111137
18:00−4ююз61491100 0.3 10051186
21:00−3юз71591100 1.8 9981247
7 марта, вс
вс700:00−2зюз71693100 0.9 9921268
03:00−2зсз51189100 2.4 990874
06:00−9зсз5166267 0.3 9911845
09:00−8з4147145 0.3 9912194
12:00−8зсз61175100 0.1 9891427
15:00−7з3790100 1.3 991622
18:00−8с498197 1.1 994871
21:00−9ссз3119089 1.1 999589